GW0352 Weather Reports


time (UTC)temp
C
wind
direction
speed
KPH
gust
KPH
rain 1hr
cm
rain 24hr
cm
rain mn
cm
humidity
%
barometer
mb
20260906195540 38 184 3.2 14.5 0.00 0.00 0.00 35 1012.9
20260906195039 38 173 4.8 14.5 0.00 0.00 0.00 34 1012.9
20260906194619 38 191 4.8 14.5 0.00 0.00 0.00 37 1013.0
20260906194039 38 210 3.2 17.7 0.00 0.00 0.00 36 1013.1
20260906193539 38 193 6.4 17.7 0.00 0.00 0.00 35 1013.1
20260906193109 38 178 3.2 8.0 0.00 0.00 0.00 38 1013.2
20260906192539 38 9 1.6 8.0 0.00 0.00 0.00 37 1013.3
20260906192039 38 178 3.2 8.0 0.00 0.00 0.00 37 1013.4
20260906191605 38 221 1.6 6.4 0.00 0.00 0.00 36 1013.4
20260906191045 37 205 1.6 9.7 0.00 0.00 0.00 35 1013.4
20260906190539 37 188 1.6 9.7 0.00 0.00 0.00 38 1013.5
20260906190103 37 238 3.2 16.1 0.00 0.00 0.00 38 1013.5
20260906185540 37 193 4.8 16.1 0.00 0.00 0.00 36 1013.6
20260906185040 37 0 1.6 6.4 0.00 0.00 0.00 39 1013.7
20260906184600 37 0 3.2 6.4 0.00 0.00 0.00 37 1013.8
20260906184039 37 195 1.6 8.0 0.00 0.00 0.00 39 1013.9
20260906183539 37 221 0.0 8.0 0.00 0.00 0.00 37 1014.0
20260906183057 37 193 0.0 8.0 0.00 0.00 0.00 37 1014.0
20260906182544 37 191 1.6 8.0 0.00 0.00 0.00 36 1014.2
20260906182043 37 108 1.6 14.5 0.00 0.00 0.00 36 1014.3
20260906181632 38 196 4.8 14.5 0.00 0.00 0.00 36 1014.4
20260906181040 38 61 1.6 11.3 0.00 0.00 0.00 35 1014.5
20260906180539 38 186 3.2 11.3 0.00 0.00 0.00 37 1014.5
20260906180100 38 153 3.2 12.9 0.00 0.00 0.00 37 1014.7
20260906175539 38 205 3.2 12.9 0.00 0.00 0.00 36 1014.8
20260906175039 38 187 3.2 12.9 0.00 0.00 0.00 36 1014.9
20260906174559 37 196 1.6 4.8 0.00 0.00 0.00 38 1015.0
20260906174044 37 212 0.0 4.8 0.00 0.00 0.00 39 1015.1
20260906173538 37 205 0.0 11.3 0.00 0.00 0.00 39 1015.2
20260906173100 37 187 1.6 14.5 0.00 0.00 0.00 38 1015.4
20260906172540 37 178 4.8 14.5 0.00 0.00 0.00 37 1015.5
20260906172042 37 177 1.6 9.7 0.00 0.00 0.00 38 1015.6
20260906171608 36 137 1.6 9.7 0.00 0.00 0.00 38 1015.6
20260906171039 37 178 3.2 8.0 0.00 0.00 0.00 38 1015.7
20260906170542 36 26 0.0 4.8 0.00 0.00 0.00 37 1015.7
20260906170108 36 254 1.6 4.8 0.00 0.00 0.00 39 1015.9
20260906165542 36 205 1.6 4.8 0.00 0.00 0.00 38 1015.9
20260906165040 37 221 1.6 4.8 0.00 0.00 0.00 39 1015.9
20260906164554 36 212 0.0 3.2 0.00 0.00 0.00 42 1015.9
20260906164040 36 221 0.0 12.9 0.00 0.00 0.00 42 1016.0
20260906163540 36 0 1.6 12.9 0.00 0.00 0.00 41 1016.0
20260906163102 36 291 0.0 3.2 0.00 0.00 0.00 42 1016.0
20260906162540 36 298 0.0 8.0 0.00 0.00 0.00 41 1016.0
20260906162039 35 193 0.0 8.0 0.00 0.00 0.00 42 1015.9
20260906161557 35 0 1.6 4.8 0.00 0.00 0.00 42 1015.9
20260906161043 35 9 1.6 11.3 0.00 0.00 0.00 44 1015.8
20260906160539 35 346 1.6 11.3 0.00 0.00 0.00 44 1015.9
20260906160100 35 336 0.0 4.8 0.00 0.00 0.00 46 1015.9
20260906155541 35 212 1.6 4.8 0.00 0.00 0.00 44 1015.9
20260906155039 34 221 0.0 6.4 0.00 0.00 0.00 47 1015.9
20260906154555 34 0 1.6 6.4 0.00 0.00 0.00 46 1015.9
20260906154041 34 221 1.6 3.2 0.00 0.00 0.00 46 1015.9
20260906153540 33 0 0.0 4.8 0.00 0.00 0.00 47 1015.8
20260906153057 33 193 1.6 6.4 0.00 0.00 0.00 48 1015.8
20260906152543 33 178 1.6 6.4 0.00 0.00 0.00 47 1015.8
20260906152043 33 319 1.6 6.4 0.00 0.00 0.00 48 1015.7
20260906151556 33 301 0.0 3.2 0.00 0.00 0.00 51 1015.7
20260906151040 32 196 0.0 3.2 0.00 0.00 0.00 52 1015.7
20260906150541 32 0 0.0 3.2 0.00 0.00 0.00 53 1015.8
20260906150108 32 0 0.0 3.2 0.00 0.00 0.00 56 1015.7
20260906145540 32 309 0.0 4.8 0.00 0.00 0.00 57 1015.7
20260906145042 31 196 0.0 6.4 0.00 0.00 0.00 59 1015.7
20260906144612 31 229 1.6 6.4 0.00 0.00 0.00 58 1015.7
20260906144039 30 0 0.0 3.2 0.00 0.00 0.00 62 1015.8
20260906143540 30 178 0.0 3.2 0.00 0.00 0.00 63 1015.8
20260906143109 29 0 0.0 3.2 0.00 0.00 0.00 64 1015.7
20260906142539 29 205 0.0 3.2 0.00 0.00 0.00 67 1015.6
20260906142041 28 291 1.6 3.2 0.00 0.00 0.00 69 1015.7
20260906141555 27 196 1.6 3.2 0.00 0.00 0.00 69 1015.6
20260906141039 27 178 0.0 3.2 0.00 0.00 0.00 72 1015.7
20260906140539 27 0 0.0 3.2 0.00 0.00 0.00 73 1015.7
20260906140059 26 0 0.0 3.2 0.00 0.00 0.00 74 1015.7
20260906135539 26 309 0.0 3.2 0.00 0.00 0.00 76 1015.7
20260906135039 25 0 0.0 1.6 0.00 0.00 0.00 76 1015.7
20260906134558 25 0 0.0 3.2 0.00 0.00 0.00 77 1015.6
20260906134040 24 0 0.0 3.2 0.00 0.00 0.00 79 1015.5
20260906133540 24 0 0.0 3.2 0.00 0.00 0.00 81 1015.4
20260906133112 23 0 0.0 1.6 0.00 0.00 0.00 82 1015.4
20260906132540 23 0 0.0 1.6 0.00 0.00 0.00 84 1015.4
20260906132039 22 9 0.0 1.6 0.00 0.00 0.00 85 1015.4
20260906131557 22 0 0.0 1.6 0.00 0.00 0.00 86 1015.3
20260906131039 22 0 0.0 1.6 0.00 0.00 0.00 86 1015.2
20260906130539 22 0 0.0 1.6 0.00 0.00 0.00 86 1015.1
20260906130105 22 0 0.0 1.6 0.00 0.00 0.00 87 1015.1
20260906125539 21 0 0.0 1.6 0.00 0.00 0.00 87 1015.0
20260906125039 21 0 0.0 1.6 0.00 0.00 0.00 86 1014.9
20260906124600 21 0 0.0 1.6 0.00 0.00 0.00 86 1014.9
20260906124039 21 0 0.0 1.6 0.00 0.00 0.00 86 1014.7
20260906123540 21 0 0.0 1.6 0.00 0.00 0.00 86 1014.7
20260906123058 21 26 0.0 3.2 0.00 0.00 0.00 86 1014.7
20260906122540 21 0 0.0 3.2 0.00 0.00 0.00 85 1014.5
20260906122040 21 0 0.0 3.2 0.00 0.00 0.00 85 1014.5
20260906121557 21 0 0.0 3.2 0.00 0.00 0.00 85 1014.4
20260906121039 21 41 0.0 1.6 0.00 0.00 0.00 85 1014.3
20260906120543 21 0 0.0 1.6 0.00 0.00 0.00 85 1014.4
20260906120058 21 0 0.0 1.6 0.00 0.00 0.00 84 1014.4
20260906115540 21 0 0.0 1.6 0.00 0.00 0.00 84 1014.3
20260906115039 21 0 0.0 1.6 0.00 0.00 0.00 84 1014.2
20260906114559 21 0 0.0 1.6 0.00 0.00 0.00 84 1014.2
20260906114039 21 0 0.0 1.6 0.00 0.00 0.00 84 1014.1
20260906113540 21 0 0.0 1.6 0.00 0.00 0.00 84 1014.1
20260906113056 21 0 0.0 1.6 0.00 0.00 0.00 84 1014.1
20260906112539 21 0 0.0 1.6 0.00 0.00 0.00 83 1014.0
20260906112039 21 0 0.0 1.6 0.00 0.00 0.00 83 1014.0
20260906111554 21 0 0.0 1.6 0.00 0.00 0.00 83 1014.0
20260906111040 21 0 0.0 1.6 0.00 0.00 0.00 83 1013.9
20260906110540 22 0 0.0 1.6 0.00 0.00 0.00 83 1013.9
20260906110050 22 0 0.0 1.6 0.00 0.00 0.00 83 1013.9
20260906105541 22 0 0.0 1.6 0.00 0.00 0.00 83 1013.9
20260906105039 22 9 0.0 1.6 0.00 0.00 0.00 82 1013.9
20260906104604 22 0 0.0 1.6 0.00 0.00 0.00 82 1013.8
20260906104044 22 0 0.0 1.6 0.00 0.00 0.00 82 1013.7
20260906103540 22 0 0.0 1.6 0.00 0.00 0.00 82 1013.7
20260906103059 22 334 0.0 1.6 0.00 0.00 0.00 82 1013.8
20260906102540 22 0 0.0 1.6 0.00 0.00 0.00 82 1013.8
20260906102040 22 0 0.0 0.0 0.00 0.00 0.00 81 1013.7
20260906101558 22 0 0.0 0.0 0.00 0.00 0.00 81 1013.7
20260906101040 22 0 0.0 0.0 0.00 0.00 0.00 81 1013.7
20260906100544 22 0 0.0 1.6 0.00 0.00 0.00 81 1013.8
20260906100051 22 0 0.0 1.6 0.00 0.00 0.00 81 1013.8
20260906095544 22 0 0.0 1.6 0.00 0.00 0.00 81 1013.7
20260906095040 22 0 0.0 1.6 0.00 0.00 0.00 81 1013.8
20260906094611 22 0 0.0 1.6 0.00 0.00 0.00 81 1013.7
20260906094040 22 0 0.0 1.6 0.00 0.00 0.00 81 1013.7
20260906093540 22 0 0.0 1.6 0.00 0.00 0.00 81 1013.8
20260906093128 22 0 0.0 1.6 0.00 0.00 0.00 81 1013.7
20260906092540 22 0 0.0 1.6 0.00 0.00 0.00 80 1013.8
20260906092040 22 0 0.0 1.6 0.00 0.00 0.00 80 1013.7
20260906091612 22 0 0.0 1.6 0.00 0.00 0.00 80 1013.7
20260906091040 22 0 0.0 1.6 0.00 0.00 0.00 80 1013.6
20260906090540 22 0 0.0 1.6 0.00 0.00 0.00 79 1013.6
20260906085539 22 0 0.0 1.6 0.00 0.00 0.00 79 1013.6
20260906085039 22 0 0.0 1.6 0.00 0.00 0.00 79 1013.7
20260906084554 22 0 0.0 1.6 0.00 0.00 0.00 79 1013.6
20260906084043 22 0 0.0 1.6 0.00 0.00 0.00 78 1013.5
20260906083542 23 0 0.0 1.6 0.00 0.00 0.00 78 1013.4
20260906083054 23 0 0.0 1.6 0.00 0.00 0.00 78 1013.5
20260906082540 23 0 0.0 1.6 0.00 0.00 0.00 78 1013.5
20260906082040 23 0 0.0 1.6 0.00 0.00 0.00 78 1013.4
20260906081600 23 0 0.0 0.0 0.00 0.00 0.00 76 1013.5
20260906081040 23 0 0.0 0.0 0.00 0.00 0.00 76 1013.5
20260906080540 23 0 0.0 0.0 0.00 0.00 0.00 76 1013.6
20260906075539 23 0 0.0 1.6 0.00 0.00 0.00 76 1013.5
20260906075039 23 0 0.0 1.6 0.00 0.00 0.00 76 1013.4
20260906074558 23 0 0.0 1.6 0.00 0.00 0.00 76 1013.4
20260906074039 23 0 0.0 1.6 0.00 0.00 0.00 76 1013.4
20260906073540 23 0 0.0 1.6 0.00 0.00 0.00 76 1013.4
20260906073053 23 0 0.0 1.6 0.00 0.00 0.00 76 1013.4
20260906072540 23 0 0.0 1.6 0.00 0.00 0.00 75 1013.3
20260906072039 23 0 0.0 1.6 0.00 0.00 0.00 74 1013.3
20260906071555 23 0 0.0 1.6 0.00 0.00 0.00 74 1013.3
20260906071040 24 0 0.0 1.6 0.00 0.00 0.00 74 1013.3
20260906070540 24 0 0.0 1.6 0.00 0.00 0.00 74 1013.2
20260906070057 24 0 0.0 1.6 0.00 0.00 0.00 74 1013.2
20260906065540 24 0 0.0 1.6 0.00 0.00 0.00 74 1013.3
20260906065039 24 0 0.0 1.6 0.00 0.00 0.00 73 1013.2
20260906064557 24 0 0.0 1.6 0.00 0.00 0.00 72 1013.4
20260906064040 24 0 0.0 1.6 0.00 0.00 0.00 72 1013.3
20260906063540 25 0 0.0 1.6 0.00 0.00 0.00 71 1013.3
20260906063101 25 0 0.0 1.6 0.00 0.00 0.00 71 1013.3
20260906062540 25 0 0.0 1.6 0.00 0.00 0.00 71 1013.4
20260906062039 25 0 0.0 1.6 0.00 0.00 0.00 71 1013.4
20260906061558 25 0 0.0 1.6 0.00 0.00 0.00 70 1013.4
20260906061039 25 221 0.0 1.6 0.00 0.00 0.00 69 1013.3
20260906060540 25 0 0.0 1.6 0.00 0.00 0.00 69 1013.3
20260906060057 25 0 0.0 1.6 0.00 0.00 0.00 69 1013.3
20260906055543 25 0 0.0 1.6 0.00 0.00 0.00 69 1013.4
20260906055040 25 0 0.0 1.6 0.00 0.00 0.00 69 1013.5
20260906054608 26 0 0.0 3.2 0.00 0.00 0.00 69 1013.4
20260906054040 26 0 0.0 3.2 0.00 0.00 0.00 69 1013.4
20260906053539 26 0 0.0 3.2 0.00 0.00 0.00 69 1013.5
20260906053057 26 0 0.0 1.6 0.00 0.00 0.00 69 1013.5
20260906052540 26 0 0.0 1.6 0.00 0.00 0.00 69 1013.4
20260906052044 26 0 0.0 1.6 0.00 0.00 0.00 69 1013.4
20260906051605 26 0 0.0 1.6 0.00 0.00 0.00 68 1013.5
20260906051040 26 0 0.0 3.2 0.00 0.00 0.00 66 1013.4
20260906050540 26 0 0.0 3.2 0.00 0.00 0.00 66 1013.2
20260906050108 26 178 0.0 3.2 0.00 0.00 0.00 66 1013.2
20260906045540 26 0 0.0 1.6 0.00 0.00 0.00 66 1013.2
20260906045041 26 205 0.0 1.6 0.00 0.00 0.00 66 1013.3
20260906044604 26 0 0.0 1.6 0.00 0.00 0.00 67 1013.3
20260906044039 26 0 0.0 1.6 0.00 0.00 0.00 67 1013.2
20260906043542 26 221 0.0 1.6 0.00 0.00 0.00 67 1013.3
20260906043104 26 0 0.0 3.2 0.00 0.00 0.00 67 1013.2
20260906042540 26 0 0.0 3.2 0.00 0.00 0.00 67 1013.3
20260906042040 26 178 0.0 3.2 0.00 0.00 0.00 67 1013.2
20260906041601 26 0 0.0 3.2 0.00 0.00 0.00 68 1013.3
20260906041040 26 0 0.0 3.2 0.00 0.00 0.00 67 1013.3
20260906040540 26 196 0.0 3.2 0.00 0.00 0.00 68 1013.2
20260906040105 26 0 0.0 3.2 0.00 0.00 0.00 67 1013.2
20260906035541 26 0 0.0 1.6 0.00 0.00 0.00 67 1013.3
20260906035040 26 0 0.0 1.6 0.00 0.00 0.00 67 1013.3
20260906034559 26 0 0.0 1.6 0.00 0.00 0.00 67 1013.3
20260906034039 26 0 0.0 1.6 0.00 0.00 0.00 66 1013.2
20260906033539 26 0 0.0 1.6 0.00 0.00 0.00 67 1013.2
20260906033055 26 0 0.0 1.6 0.00 0.00 0.00 66 1013.2
20260906032540 27 0 0.0 1.6 0.00 0.00 0.00 66 1013.2
20260906032040 27 0 0.0 1.6 0.00 0.00 0.00 66 1013.1
20260906031555 27 0 0.0 1.6 0.00 0.00 0.00 64 1013.1
20260906031041 27 0 0.0 1.6 0.00 0.00 0.00 64 1013.1
20260906030540 27 0 0.0 1.6 0.00 0.00 0.00 64 1013.0
20260906025540 27 0 0.0 1.6 0.00 0.00 0.00 64 1013.0
20260906025040 27 0 0.0 1.6 0.00 0.00 0.00 65 1012.9
20260906024602 27 0 0.0 1.6 0.00 0.00 0.00 65 1012.8
20260906024039 28 0 0.0 1.6 0.00 0.00 0.00 64 1012.7
20260906023540 28 0 0.0 1.6 0.00 0.00 0.00 63 1012.6
20260906023056 28 0 0.0 1.6 0.00 0.00 0.00 62 1012.5
20260906022539 28 0 0.0 1.6 0.00 0.00 0.00 61 1012.5
20260906022039 28 196 0.0 1.6 0.00 0.00 0.00 61 1012.5
20260906021556 28 0 0.0 1.6 0.00 0.00 0.00 61 1012.4
20260906021040 28 0 0.0 1.6 0.00 0.00 0.00 60 1012.3
20260906020540 28 0 0.0 1.6 0.00 0.00 0.00 61 1012.3
20260906020100 29 0 0.0 1.6 0.00 0.00 0.00 61 1012.2
20260906015539 29 0 0.0 1.6 0.00 0.00 0.00 60 1012.2
20260906015040 29 221 0.0 1.6 0.00 0.00 0.00 58 1012.1
20260906014633 30 0 0.0 1.6 0.00 0.00 0.00 58 1012.1
20260906014039 30 0 0.0 1.6 0.00 0.00 0.00 59 1012.0
20260906013539 30 0 0.0 3.2 0.00 0.00 0.00 57 1012.0
20260906013101 30 0 0.0 3.2 0.00 0.00 0.00 56 1011.8
20260906012540 30 0 0.0 3.2 0.00 0.00 0.00 55 1011.7
20260906012042 31 0 0.0 1.6 0.00 0.00 0.00 54 1011.6
20260906011605 31 178 0.0 3.2 0.00 0.00 0.00 55 1011.6
20260906011039 31 221 0.0 3.2 0.00 0.00 0.00 55 1011.6
20260906010539 31 325 1.6 3.2 0.00 0.00 0.00 55 1011.6
20260906010057 32 319 0.0 3.2 0.00 0.00 0.00 54 1011.5
20260906005540 32 325 0.0 3.2 0.00 0.00 0.00 52 1011.4
20260906005039 32 334 1.6 3.2 0.00 0.00 0.00 51 1011.3
20260906004614 32 0 0.0 3.2 0.00 0.00 0.00 50 1011.4
20260906004041 33 205 0.0 3.2 0.00 0.00 0.00 49 1011.4
20260906003540 33 196 0.0 3.2 0.00 0.00 0.00 48 1011.4
20260906003112 33 0 0.0 3.2 0.00 0.00 0.00 48 1011.5
20260906002540 34 243 1.6 3.2 0.00 0.00 0.00 47 1011.5
20260906002040 34 232 1.6 3.2 0.00 0.00 0.00 45 1011.5
20260906001557 35 232 0.0 3.2 0.00 0.00 0.00 45 1011.6
20260906001039 35 196 0.0 3.2 0.00 0.00 0.00 44 1011.6
20260906000545 35 178 0.0 3.2 0.00 0.00 0.00 44 1011.6
20260906000056 35 178 0.0 3.2 0.00 0.00 0.00 43 1011.6
20260905235542 36 0 0.0 4.8 0.00 0.00 0.00 41 1011.5
20260905235040 36 0 0.0 4.8 0.00 0.00 0.00 40 1011.6
20260905234554 36 196 1.6 6.4 0.00 0.00 0.00 40 1011.6
20260905234040 36 190 1.6 6.4 0.00 0.00 0.00 39 1011.6
20260905233540 36 193 1.6 8.0 0.00 0.00 0.00 38 1011.7
20260905233053 36 178 1.6 8.0 0.00 0.00 0.00 38 1011.7
20260905232539 37 178 3.2 14.5 0.00 0.00 0.00 38 1011.7
20260905232040 37 186 3.2 16.1 0.00 0.00 0.00 38 1011.6
20260905231557 37 177 3.2 16.1 0.00 0.00 0.00 38 1011.7
20260905231039 37 193 1.6 8.0 0.00 0.00 0.00 38 1011.7
20260905230539 37 178 1.6 9.7 0.00 0.00 0.00 39 1011.6
20260905230052 37 185 3.2 9.7 0.00 0.00 0.00 39 1011.6
20260905225539 37 178 4.8 12.9 0.00 0.00 0.00 38 1011.5
20260905225041 37 171 3.2 12.9 0.00 0.00 0.00 37 1011.6
20260905224610 37 178 6.4 12.9 0.00 0.00 0.00 37 1011.6
20260905224040 37 168 6.4 12.9 0.00 0.00 0.00 38 1011.6
20260905223539 37 167 3.2 11.3 0.00 0.00 0.00 36 1011.6
20260905223054 37 196 3.2 11.3 0.00 0.00 0.00 35 1011.5
20260905222540 37 175 6.4 9.7 0.00 0.00 0.00 37 1011.5
20260905222039 37 184 4.8 9.7 0.00 0.00 0.00 36 1011.5
20260905221611 37 178 3.2 12.9 0.00 0.00 0.00 36 1011.4
20260905221040 37 190 3.2 12.9 0.00 0.00 0.00 36 1011.3
20260905220539 37 178 4.8 11.3 0.00 0.00 0.00 36 1011.4
20260905220057 37 178 3.2 9.7 0.00 0.00 0.00 37 1011.3
20260905215540 37 129 1.6 11.3 0.00 0.00 0.00 37 1011.2
20260905215039 37 201 4.8 20.9 0.00 0.00 0.00 36 1011.3
20260905214603 37 182 6.4 20.9 0.00 0.00 0.00 36 1011.4
20260905214040 37 190 11.3 19.3 0.00 0.00 0.00 37 1011.3
20260905213540 37 164 3.2 12.9 0.00 0.00 0.00 36 1011.3
20260905213104 37 193 3.2 11.3 0.00 0.00 0.00 37 1011.3
20260905212540 37 171 4.8 17.7 0.00 0.00 0.00 36 1011.4
20260905212039 37 168 6.4 17.7 0.00 0.00 0.00 37 1011.4
20260905211601 37 169 8.0 17.7 0.00 0.00 0.00 37 1011.4
20260905211039 37 103 6.4 17.7 0.00 0.00 0.00 37 1011.5
20260905210538 37 178 8.0 9.7 0.00 0.00 0.00 36 1011.6
20260905210057 37 178 8.0 14.5 0.00 0.00 0.00 36 1011.7
20260905205539 37 178 8.0 17.7 0.00 0.00 0.00 36 1011.8
20260905205039 37 178 8.0 17.7 0.00 0.00 0.00 37 1011.9
20260905204557 37 178 1.6 9.7 0.00 0.00 0.00 39 1012.0
20260905204040 37 178 3.2 9.7 0.00 0.00 0.00 37 1012.2
20260905203540 37 171 1.6 11.3 0.00 0.00 0.00 38 1012.2
20260905203101 37 178 1.6 16.1 0.00 0.00 0.00 38 1012.4
20260905202539 37 221 4.8 16.1 0.00 0.00 0.00 37 1012.4
20260905202039 37 51 1.6 14.5 0.00 0.00 0.00 38 1012.6
20260905201615 37 169 11.3 14.5 0.00 0.00 0.00 39 1012.7
20260905201039 37 76 1.6 8.0 0.00 0.00 0.00 38 1012.7
20260905200540 37 188 3.2 8.0 0.00 0.00 0.00 38 1012.8
20260905200057 37 238 3.2 8.0 0.00 0.00 0.00 38 1012.9